When you browse on this site, cookies collect data to enhance your experience and personalize the content and advertising you see.
Visit our Privacy Policy to learn more. By continuing to use the site, you agree to this use of cookies and data.
  • In Romania
  • List of Countries
  • For 7 days
  • Water Temperature
  • Satellite Maps
  • Weather Map
  • Weather Widgets
  • user-avatar
    Login

    Hourly Weather Baku

    Today, 24 June, Monday

    Time Temperature Precipitation Wind Pressure Humidity
    00:00 +32°C° 0 mm 1 mps 757 mmHg 44%
    01:00 +31°C° 0 mm 1 mps 757 mmHg 45%
    02:00 +31°C° 0 mm 1 mps 757 mmHg 46%
    03:00 +30°C° 0 mm 1 mps 757 mmHg 48%
    04:00 +31°C° 0 mm 1 mps 757 mmHg 47%
    05:00 +31°C° 0 mm 1 mps 757 mmHg 46%
    06:00 +31°C° 0 mm 1 mps 757 mmHg 45%
    07:00 +32°C° 0 mm 1 mps 757 mmHg 40%
    08:00 +34°C° 0 mm 1 mps 757 mmHg 36%
    09:00 +36°C° 0 mm 2 mps 758 mmHg 32%
    10:00 +37°C° 0 mm 3 mps 758 mmHg 27%
    11:00 +38°C° 0 mm 4 mps 757 mmHg 23%
    12:00 +41°C° 0 mm 5 mps 757 mmHg 18%
    13:00 +41°C° 0 mm 5 mps 757 mmHg 17%
    14:00 +41°C° 0 mm 4 mps 756 mmHg 17%
    15:00 +40°C° 0 mm 4 mps 756 mmHg 17%
    16:00 +40°C° 0 mm 4 mps 756 mmHg 17%
    17:00 +39°C° 0 mm 3 mps 756 mmHg 17%
    18:00 +39°C° 0 mm 3 mps 756 mmHg 17%
    19:00 +38°C° 0 mm 3 mps 756 mmHg 19%
    20:00 +36°C° 0 mm 3 mps 756 mmHg 21%
    21:00 +35°C° 0 mm 2 mps 756 mmHg 23%
    22:00 +35°C° 0 mm 3 mps 756 mmHg 25%
    23:00 +34°C° 0 mm 3 mps 756 mmHg 28%

    Tomorrow, 25 June, Tuesday

    Time Temperature Precipitation Wind Pressure Humidity
    00:00 +33°C° 0 mm 3 mps 756 mmHg 30%
    01:00 +33°C° 0 mm 4 mps 756 mmHg 34%
    02:00 +32°C° 0 mm 5 mps 756 mmHg 38%
    03:00 +30°C° 0 mm 6 mps 756 mmHg 41%
    04:00 +30°C° 0 mm 6 mps 756 mmHg 43%
    05:00 +30°C° 0 mm 6 mps 756 mmHg 44%
    06:00 +30°C° 0 mm 7 mps 756 mmHg 45%
    07:00 +32°C° 0 mm 7 mps 757 mmHg 45%
    08:00 +33°C° 0 mm 7 mps 757 mmHg 44%
    09:00 +34°C° 0 mm 7 mps 757 mmHg 44%
    10:00 +34°C° 0 mm 6 mps 757 mmHg 42%
    11:00 +35°C° 0 mm 6 mps 757 mmHg 41%
    12:00 +35°C° 0 mm 6 mps 757 mmHg 39%
    13:00 +35°C° 0 mm 6 mps 757 mmHg 37%
    14:00 +36°C° 0 mm 5 mps 757 mmHg 35%
    15:00 +36°C° 0 mm 5 mps 757 mmHg 33%
    16:00 +35°C° 0 mm 5 mps 756 mmHg 35%
    17:00 +34°C° 0 mm 6 mps 756 mmHg 36%
    18:00 +34°C° 0 mm 6 mps 756 mmHg 38%
    19:00 +33°C° 0 mm 6 mps 756 mmHg 40%
    20:00 +33°C° 0 mm 6 mps 757 mmHg 42%
    21:00 +32°C° 0 mm 6 mps 757 mmHg 44%
    22:00 +32°C° 0 mm 6 mps 757 mmHg 45%
    23:00 +30°C° 0 mm 6 mps 757 mmHg 47%

    Day after tomorrow, 26 June, Wednesday

    Time Temperature Precipitation Wind Pressure Humidity
    00:00 +30°C° 0 mm 6 mps 757 mmHg 48%
    01:00 +30°C° 0 mm 6 mps 757 mmHg 50%
    02:00 +30°C° 0 mm 6 mps 757 mmHg 52%
    03:00 +29°C° 0 mm 6 mps 757 mmHg 54%
    04:00 +30°C° 0 mm 7 mps 757 mmHg 54%
    05:00 +30°C° 0 mm 7 mps 757 mmHg 54%
    06:00 +30°C° 0 mm 7 mps 757 mmHg 54%
    07:00 +32°C° 0 mm 8 mps 757 mmHg 51%
    08:00 +33°C° 0 mm 9 mps 758 mmHg 48%
    09:00 +34°C° 0 mm 10 mps 758 mmHg 46%
    10:00 +34°C° 0 mm 10 mps 758 mmHg 48%
    11:00 +34°C° 0 mm 10 mps 758 mmHg 51%
    12:00 +34°C° 0 mm 10 mps 758 mmHg 54%
    13:00 +33°C° 0 mm 10 mps 758 mmHg 54%
    14:00 +33°C° 0 mm 10 mps 757 mmHg 53%
    15:00 +33°C° 0 mm 10 mps 757 mmHg 53%
    16:00 +33°C° 0 mm 9 mps 757 mmHg 53%
    17:00 +33°C° 0 mm 9 mps 757 mmHg 52%
    18:00 +32°C° 0 mm 9 mps 757 mmHg 52%
    19:00 +32°C° 0 mm 10 mps 757 mmHg 52%
    20:00 +31°C° 0 mm 10 mps 757 mmHg 52%
    21:00 +31°C° 0 mm 11 mps 757 mmHg 52%
    22:00 +31°C° 0 mm 12 mps 757 mmHg 54%
    23:00 +29°C° 0 mm 12 mps 757 mmHg 57%

    27 June, Thursday

    Time Temperature Precipitation Wind Pressure Humidity
    00:00 +29°C° 0 mm 12 mps 756 mmHg 60%
    01:00 +28°C° 0 mm 12 mps 756 mmHg 63%
    02:00 +28°C° 0 mm 12 mps 756 mmHg 67%
    03:00 +28°C° 0 mm 11 mps 756 mmHg 70%
    04:00 +28°C° 0 mm 11 mps 756 mmHg 69%
    05:00 +28°C° 0 mm 11 mps 756 mmHg 68%
    06:00 +28°C° 0 mm 10 mps 756 mmHg 67%
    07:00 +28°C° 0 mm 10 mps 757 mmHg 64%
    08:00 +29°C° 0 mm 10 mps 757 mmHg 60%
    09:00 +31°C° 0 mm 10 mps 757 mmHg 57%
    10:00 +31°C° 0 mm 9 mps 756 mmHg 52%
    11:00 +32°C° 0 mm 9 mps 756 mmHg 48%
    12:00 +32°C° 0 mm 8 mps 756 mmHg 44%
    13:00 +32°C° 0 mm 8 mps 756 mmHg 43%
    14:00 +32°C° 0 mm 8 mps 755 mmHg 42%
    15:00 +32°C° 0 mm 8 mps 755 mmHg 41%
    16:00 +32°C° 0 mm 8 mps 755 mmHg 42%
    17:00 +31°C° 0 mm 8 mps 754 mmHg 44%
    18:00 +31°C° 0 mm 8 mps 754 mmHg 45%
    19:00 +29°C° 0 mm 8 mps 754 mmHg 46%
    20:00 +29°C° 0 mm 8 mps 754 mmHg 47%
    21:00 +28°C° 0 mm 7 mps 754 mmHg 48%
    22:00 +28°C° 0 mm 7 mps 754 mmHg 48%
    23:00 +28°C° 0 mm 7 mps 754 mmHg 48%

    28 June, Friday

    Time Temperature Precipitation Wind Pressure Humidity
    00:00 +28°C° 0 mm 7 mps 754 mmHg 49%
    01:00 +28°C° 0 mm 7 mps 753 mmHg 51%
    02:00 +27°C° 0 mm 6 mps 753 mmHg 52%
    03:00 +27°C° 0 mm 6 mps 753 mmHg 54%
    04:00 +27°C° 0 mm 6 mps 753 mmHg 54%
    05:00 +28°C° 0 mm 5 mps 753 mmHg 54%
    06:00 +28°C° 0 mm 5 mps 752 mmHg 54%
    07:00 +29°C° 0 mm 4 mps 752 mmHg 49%
    08:00 +29°C° 0 mm 4 mps 752 mmHg 44%
    09:00 +30°C° 0 mm 3 mps 752 mmHg 40%
    10:00 +31°C° 0 mm 3 mps 752 mmHg 36%
    11:00 +33°C° 0 mm 3 mps 751 mmHg 32%
    12:00 +34°C° 0 mm 4 mps 751 mmHg 29%
    13:00 +34°C° 0 mm 4 mps 751 mmHg 28%
    14:00 +34°C° 0 mm 4 mps 750 mmHg 27%
    15:00 +34°C° 0 mm 5 mps 750 mmHg 27%
    16:00 +34°C° 0 mm 5 mps 749 mmHg 27%
    17:00 +34°C° 0 mm 4 mps 749 mmHg 27%
    18:00 +34°C° 0 mm 4 mps 749 mmHg 27%
    19:00 +33°C° 0 mm 3 mps 749 mmHg 29%
    20:00 +31°C° 0 mm 2 mps 749 mmHg 30%
    21:00 +31°C° 0 mm 1 mps 749 mmHg 32%
    22:00 +31°C° 0 mm 1 mps 749 mmHg 33%
    23:00 +30°C° 0 mm 1 mps 749 mmHg 34%

    29 June, Saturday

    Time Temperature Precipitation Wind Pressure Humidity
    00:00 +30°C° 0 mm 1 mps 749 mmHg 36%
    01:00 +30°C° 0 mm 1 mps 748 mmHg 35%
    02:00 +28°C° 0 mm 0 mps 748 mmHg 34%
    03:00 +28°C° 0 mm 0 mps 748 mmHg 33%
    04:00 +29°C° 0 mm 2 mps 748 mmHg 36%
    05:00 +29°C° 0 mm 3 mps 749 mmHg 40%
    06:00 +29°C° 0 mm 4 mps 749 mmHg 44%
    07:00 +29°C° 0 mm 6 mps 749 mmHg 48%
    08:00 +29°C° 0 mm 8 mps 749 mmHg 52%
    09:00 +29°C° 0 mm 10 mps 749 mmHg 56%
    10:00 +29°C° 0 mm 10 mps 749 mmHg 56%
    11:00 +29°C° 0 mm 11 mps 749 mmHg 56%
    12:00 +29°C° 0 mm 11 mps 750 mmHg 57%
    13:00 +29°C° 0 mm 12 mps 750 mmHg 59%
    14:00 +29°C° 0 mm 12 mps 750 mmHg 60%
    15:00 +29°C° 0 mm 13 mps 750 mmHg 62%
    16:00 +29°C° 0 mm 13 mps 750 mmHg 65%
    17:00 +28°C° 0 mm 13 mps 750 mmHg 67%
    18:00 +27°C° 0 mm 13 mps 750 mmHg 70%
    19:00 +27°C° 0 mm 13 mps 751 mmHg 71%
    20:00 +27°C° 0 mm 12 mps 751 mmHg 73%
    21:00 +26°C° 0 mm 12 mps 751 mmHg 74%
    22:00 +26°C° 0.1 mm 12 mps 751 mmHg 73%
    23:00 +26°C° 0.1 mm 12 mps 751 mmHg 72%
    Show more